This is the latest recevied weather packets stored in our database for station/object PA5MB-15. If no packets are shown the sender has not sent any weather packets the latest 10 day(s).
| Time | Temp. | Humidity | Pressure | Rain* | Wind** | Luminosity | Snow |
|---|---|---|---|---|---|---|---|
| 1777815334 | 16.67° C | 93% | 1011.8 hPa | 0 mm | - | 7 W/m² | - |
| 1777815034 | 16.67° C | 92% | 1011.8 hPa | 0 mm | - | 4 W/m² | - |
| 1777814731 | 17.22° C | 92% | 1011.9 hPa | 0 mm | - | 14 W/m² | - |
| 1777814434 | 17.22° C | 92% | 1011.9 hPa | 0 mm | - | 23 W/m² | - |
| 1777814131 | 17.22° C | 92% | 1011.9 hPa | 0 mm | - | 24 W/m² | - |
| 1777813831 | 16.67° C | 92% | 1012 hPa | 0 mm | - | 22 W/m² | - |
| 1777813531 | 16.67° C | 92% | 1012 hPa | 0 mm | - | 22 W/m² | - |
| 1777813233 | 16.67° C | 93% | 1012 hPa | 0.25 mm | - | 23 W/m² | - |
| 1777812934 | 16.67° C | 93% | 1012 hPa | 0.25 mm | - | 22 W/m² | - |
| 1777812621 | 16.67° C | 94% | 1012.1 hPa | 0.51 mm | - | 24 W/m² | - |
| 1777812328 | 16.11° C | 95% | 1012.1 hPa | 0.51 mm | - | 22 W/m² | - |
| 1777812031 | 16.11° C | 95% | 1012.2 hPa | 0.76 mm | - | 25 W/m² | - |
| 1777811734 | 16.11° C | 96% | 1012.2 hPa | 0.76 mm | - | 26 W/m² | - |
| 1777811431 | 16.11° C | 97% | 1012.2 hPa | 1.02 mm | - | 26 W/m² | - |
| 1777811131 | 16.11° C | 97% | 1012.2 hPa | 1.27 mm | - | 27 W/m² | - |
| 1777810834 | 15.56° C | 97% | 1012.2 hPa | 1.27 mm | - | 25 W/m² | - |
| 1777810533 | 15.56° C | 97% | 1012.2 hPa | 1.27 mm | - | 14 W/m² | - |
| 1777810222 | 15.56° C | 96% | 1012.2 hPa | 1.52 mm | - | 7 W/m² | - |
| 1777809956 | 16.11° C | 96% | 1012.2 hPa | 1.52 mm | - | 8 W/m² | - |
| 1777809624 | 16.11° C | 96% | 1012.2 hPa | 1.27 mm | - | 17 W/m² | - |
| 1777809336 | 16.11° C | 97% | 1012.3 hPa | 1.52 mm | - | 17 W/m² | - |
| 1777809034 | 15.56° C | 97% | 1012.3 hPa | 1.27 mm | - | 15 W/m² | - |
| 1777808746 | 16.11° C | 97% | 1012.3 hPa | 1.27 mm | - | 13 W/m² | - |
| 1777808425 | 16.11° C | 97% | 1012.3 hPa | 1.27 mm | - | 6 W/m² | - |
| 1777808134 | 15.56° C | 96% | 1012.3 hPa | 1.27 mm | - | 5 W/m² | - |
* Rain latest hour (hover to see other rain measurements)
** Current wind speed in m/s (hover to see current wind gust speed)